History for Miami, FL

Thursday, January 3, 2013 — View Current Conditions

Jump to Data:

Date:
Airport Code:
Recently Viewed Airport Codes: KMIA
Daily Summary
  Actual Average Record
Temperature
Mean Temperature 76°F 68°F  
Max Temperature 82°F 76°F 86°F (1967)
Min Temperature 69°F 60°F 35°F (1898)
Degree Days
Heating Degree Days 0 2  
Month to date heating degree days 0 6  
Since 1 July heating degree days 16 43  
Cooling Degree Days 11 5  
Month to date cooling degree days 27 15  
Year to date cooling degree days 27 15  
Growing Degree Days 26 (Base 50)    
Moisture
Dew Point 66°F    
Average Humidity 71    
Maximum Humidity 90    
Minimum Humidity 51    
Precipitation
Precipitation T in 0.05 in 1.35 in (1958)
Month to date precipitation T 0.15  
Year to date precipitation T 0.15  
Snow
Snow 0.00 in in in ()
Month to date snowfall 0.0  
Since 1 July snowfall 0.0  
Snow Depth 0.00 in    
Sea Level Pressure
Sea Level Pressure 30.09 in    
Wind
Wind Speed 4 mph (SE)    
Max Wind Speed 14 mph    
Max Gust Speed 23 mph    
Visibility 10 miles    
Events      
T = Trace of Precipitation, MM = Missing Value Source: NWS Daily Summary

Show full METARS

(help) - Comma Delimited File

Hourly Observations

Time(EST) Temperature Dew Point Humidity Sea Level Pressure Visibility Wind Direction Wind Speed Gust Speed Precipitation Events Conditions
12:53 AM 71.1°F 66.9°F 87% 30.06 in 10.0 miles Calm Calm - N/A   Mostly Cloudy
1:53 AM 71.1°F 66.9°F 87% 30.06 in 10.0 miles Calm Calm - N/A   Mostly Cloudy
2:53 AM 71.1°F 66.9°F 87% 30.06 in 10.0 miles Calm Calm - N/A   Mostly Cloudy
3:53 AM 70.0°F 66.9°F 90% 30.06 in 10.0 miles Calm Calm - N/A   Mostly Cloudy
4:53 AM 70.0°F 66.9°F 90% 30.06 in 10.0 miles North 3.5 mph - N/A   Mostly Cloudy
5:53 AM 70.0°F 66.0°F 87% 30.08 in 10.0 miles Calm Calm - N/A   Mostly Cloudy
6:53 AM 70.0°F 66.0°F 87% 30.09 in 10.0 miles Calm Calm - N/A   Mostly Cloudy
7:53 AM 70.0°F 66.0°F 87% 30.12 in 10.0 miles Calm Calm - N/A   Scattered Clouds
8:53 AM 73.0°F 66.9°F 81% 30.12 in 10.0 miles East 3.5 mph - N/A   Scattered Clouds
9:53 AM 75.9°F 66.9°F 74% 30.13 in 10.0 miles SE 3.5 mph - N/A   Scattered Clouds
10:53 AM 79.0°F 64.9°F 62% 30.12 in 10.0 miles SSE 10.4 mph - N/A   Mostly Cloudy
11:53 AM 80.1°F 64.9°F 60% 30.10 in 10.0 miles SE 8.1 mph - N/A   Scattered Clouds
12:53 PM 81.0°F 64.0°F 56% 30.07 in 10.0 miles SSE 9.2 mph - N/A   Mostly Cloudy
1:53 PM 82.0°F 63.0°F 52% 30.05 in 10.0 miles SSE 10.4 mph 17.3 mph N/A   Scattered Clouds
2:53 PM 81.0°F 63.0°F 54% 30.05 in 10.0 miles SE 10.4 mph - 0.00 in   Scattered Clouds
3:53 PM 80.1°F 63.0°F 56% 30.06 in 10.0 miles SSE 8.1 mph 17.3 mph N/A   Scattered Clouds
4:53 PM 78.1°F 64.0°F 62% 30.08 in 10.0 miles SSE 8.1 mph - N/A   Scattered Clouds
5:53 PM 75.9°F 64.9°F 69% 30.09 in 10.0 miles SSE 5.8 mph - N/A   Scattered Clouds
6:53 PM 73.9°F 66.0°F 76% 30.11 in 10.0 miles SSE 5.8 mph - N/A   Scattered Clouds
7:53 PM 73.0°F 66.0°F 79% 30.13 in 10.0 miles SSE 3.5 mph - N/A   Clear
8:53 PM 73.0°F 66.9°F 81% 30.14 in 10.0 miles SSE 5.8 mph - N/A   Clear
9:53 PM 73.0°F 66.9°F 81% 30.15 in 10.0 miles Variable 3.5 mph - N/A   Scattered Clouds
10:53 PM 71.1°F 66.0°F 84% 30.14 in 10.0 miles SSE 3.5 mph - N/A   Partly Cloudy
11:53 PM 71.1°F 66.9°F 87% 30.14 in 10.0 miles South 3.5 mph - N/A   Partly Cloudy